User: anonymous   Login
Location: American Medical Response
(33.3472°N, 96.5511°W)
Time: 18:09:03
(UTC+00:00)
Language:

RESURS O1 DEB - Orbit

View from above orbital plane
View from above orbital plane
View from above satellite
View from above satellite

Ground track
Ground track

The orbit data is extracted from the following two-line orbital elements,

1 49238U 94074FS  22278.10266251  .00025512  00000-0  27158-2 0  9994
2 49238  97.9115 329.6050 0008046 200.5491 159.5403 14.88879294 62212
Epoch (UTC): 05 October 2022 02:27:50
Eccentricity: 0.0008046
inclination: 97.9115°
perigee height: 596 km
apogee height: 607 km
right ascension of ascending node: 329.6050°
argument of perigee: 200.5491°
revolutions per day: 14.88879294
mean anomaly at epoch: 159.5403°
orbit number at epoch: 6221

The dashed part of the orbit path shows where the satellite is in the earth's shadow,  

DLR